Theta_e
320 325 334 334 344 349 353 351 346 353 354 348 347 346 342 345 349 354 350 348 338 344 345 346 347 347 348 347 344 343 341 341 340 340 342 344 345 344 344 341 341 340 340 339 338 336 334 334 335
320 326 333 331 342 349 352 349 353 351 349 348 347 344 345 352 353 352 349 343 341 341 338 346 346 348 345 342 340 342 341 340 337 339 342 344 344 344 341 340 340 339 338 337 336 334 332 334 335
319 328 327 330 331 345 349 350 350 348 346 344 345 345 346 357 352 352 349 341 341 336 333 343 338 335 336 336 341 342 341 342 342 342 342 342 343 341 339 338 338 337 335 334 333 331 332 334 334
321 325 323 330 331 333 341 349 349 350 349 342 344 344 340 351 353 350 347 344 339 337 331 329 328 328 333 337 338 340 341 342 342 343 344 341 340 339 338 336 335 334 333 333 331 331 333 333 332
321 318 324 325 351 353 350 346 349 346 344 341 340 346 354 352 350 350 349 344 340 338 332 326 326 327 332 337 339 339 341 341 339 340 339 338 337 337 336 335 334 332 332 331 331 331 332 332 331
314 318 322 325 353 354 351 348 348 348 348 342 342 345 347 351 351 351 350 346 340 337 335 326 325 326 327 333 337 338 339 339 338 336 335 334 333 333 333 333 332 331 331 330 330 331 331 330 329
315 317 322 322 354 356 351 345 341 343 348 352 347 344 342 351 352 351 348 342 339 337 337 332 323 326 326 327 332 331 332 332 332 331 332 331 331 331 331 331 330 330 330 329 328 328 328 327 327
314 316 319 320 338 353 347 345 340 343 349 346 348 345 344 349 351 350 349 347 342 340 338 332 323 321 324 324 325 327 327 327 329 330 330 330 330 330 331 330 328 330 336 336 333 328 326 326 325
314 313 315 320 353 350 344 348 347 340 344 340 341 343 345 350 349 349 349 348 348 347 343 338 330 324 324 324 324 323 325 326 326 327 327 327 327 327 335 341 342 342 341 339 337 334 331 329 332
312 312 337 347 349 350 351 347 345 344 341 341 344 338 338 337 337 338 336 333 333 339 344 347 344 331 326 327 328 324 323 323 324 325 325 334 332 335 340 341 343 342 343 342 340 339 337 338 340
313 313 347 351 350 345 342 346 348 344 348 345 340 334 332 331 330 330 329 328 327 327 339 341 344 344 343 343 340 328 327 326 330 330 336 340 342 345 346 343 343 343 341 341 339 339 338 338 338
315 316 351 350 347 346 350 347 345 344 340 334 332 329 328 327 326 325 326 325 325 324 326 332 338 344 345 347 346 344 341 341 339 340 340 341 342 343 343 343 342 341 340 339 339 338 337 335 337
314 326 350 349 346 346 340 339 335 332 329 327 327 326 326 324 323 322 322 322 323 323 323 326 332 337 340 340 344 344 345 341 341 342 341 340 343 344 345 342 341 340 340 340 340 339 338 335 334
315 341 346 346 341 337 337 336 332 328 325 324 323 322 322 322 321 320 319 319 319 321 322 324 329 332 334 338 341 342 342 341 339 340 340 342 344 344 342 341 341 340 340 342 342 343 341 339 338
321 338 337 338 337 337 331 333 332 326 324 324 322 320 320 320 319 318 317 317 317 317 319 322 324 327 331 335 337 339 339 337 335 333 334 336 338 342 342 342 342 342 341 342 342 341 342 340 339
314 331 336 335 335 333 331 335 329 324 323 323 323 320 318 317 317 317 316 316 316 316 315 317 319 322 325 329 332 330 330 330 327 328 328 329 330 333 336 335 332 334 338 338 338 337 340 341 341
312 316 325 336 331 334 331 332 328 324 323 323 321 320 318 316 315 315 316 315 315 315 313 314 316 317 321 322 322 321 322 321 319 321 320 320 322 325 325 322 322 324 327 331 331 329 327 331 335
313 315 319 331 332 329 330 331 328 324 323 322 319 318 316 316 315 315 315 315 314 314 313 312 314 314 317 318 319 317 317 314 315 315 313 314 318 318 318 316 316 316 319 320 319 321 322 324 323
314 316 314 320 328 326 330 331 328 325 322 320 318 316 315 315 314 315 314 314 314 313 313 311 313 313 315 317 315 314 313 312 312 311 313 313 311 311 310 310 310 310 310 310 310 312 314 318 317
314 315 315 322 323 325 329 331 326 324 322 319 317 316 314 313 312 313 314 314 313 312 311 311 310 311 312 313 313 313 311 310 310 310 310 309 309 308 307 307 307 307 307 307 307 308 310 313 314
315 315 316 323 326 325 327 328 326 323 320 319 316 314 313 312 311 312 313 313 312 311 310 310 310 310 310 311 311 311 309 309 308 308 308 307 307 305 304 303 304 303 303 303 304 304 305 308 309
317 317 318 325 325 329 324 330 324 322 321 319 315 313 312 311 310 310 312 311 311 310 310 309 310 309 309 309 310 308 308 307 307 306 306 305 304 302 301 301 302 302 301 301 301 302 302 304 305
319 319 318 324 322 323 326 322 321 322 319 317 313 312 311 310 309 308 310 311 310 309 309 309 309 309 308 308 308 308 306 306 305 304 303 304 303 301 300 301 300 300 300 299 300 299 300 300 301
319 317 317 320 321 324 325 325 320 324 323 316 313 312 311 309 307 307 310 309 310 309 308 309 308 309 308 308 308 308 307 306 305 304 303 303 302 301 301 300 300 299 299 299 299 298 298 298 298
318 315 315 317 318 325 321 324 321 321 320 316 313 311 309 308 307 306 306 308 309 309 309 307 307 307 308 307 306 307 307 306 305 305 304 303 302 302 301 301 299 298 299 298 298 298 297 297 297
317 315 317 319 322 321 322 326 322 317 318 313 310 309 308 306 305 305 306 307 307 307 308 308 307 306 308 306 305 305 305 305 304 303 302 303 302 303 302 301 300 299 299 299 298 298 297 296 296
322 319 315 318 320 320 322 321 316 314 312 311 310 308 307 306 306 306 306 307 307 307 306 308 307 307 308 306 305 305 304 305 304 303 302 301 301 301 302 301 300 299 298 298 298 298 297 295 295
323 320 322 319 323 326 328 324 320 314 312 311 309 309 308 307 307 305 305 306 307 306 306 307 306 305 306 306 305 305 304 305 302 301 303 301 300 300 302 300 300 299 297 298 297 297 296 295 294
327 330 326 320 321 324 332 332 318 313 312 310 309 308 308 307 306 305 305 306 307 306 305 305 304 304 305 306 305 305 304 303 302 300 302 300 299 299 300 300 299 297 296 296 297 296 296 295 294
331 331 328 330 331 327 331 327 313 310 309 309 309 309 308 307 307 306 305 306 305 305 304 304 304 304 304 305 304 304 304 303 301 300 299 298 297 298 299 300 298 297 296 297 296 295 295 294 294
Wind_Speed
7 4 5 4 4 4 6 2 3 10 6 2 5 7 12 12 2 3 12 17 27 25 23 21 21 20 19 19 20 20 22 22 21 22 21 20 18 16 15 15 15 14 13 12 11 11 10 11 10
13 2 4 1 5 3 4 3 12 12 6 7 16 11 10 5 8 14 11 24 25 25 23 21 20 20 19 19 20 19 20 20 20 20 19 17 15 14 14 13 11 11 9 9 8 8 8 7 8
17 3 2 4 4 5 5 4 13 13 10 4 5 5 5 5 16 9 18 27 25 24 23 20 19 19 19 19 19 19 19 18 18 16 15 14 13 12 11 10 9 7 6 6 5 5 5 5 6
3 4 4 4 4 5 5 20 8 9 2 6 9 7 5 13 6 20 28 25 25 22 20 19 18 18 18 18 18 17 18 17 15 15 11 10 10 9 8 7 6 5 3 2 3 2 2 3 5
3 3 3 3 1 6 15 14 6 11 7 13 11 10 6 14 34 34 29 26 24 21 18 18 17 17 16 17 16 16 15 15 14 12 11 9 8 6 4 3 2 2 1 1 2 3 3 4 4
4 3 4 2 5 9 7 2 22 16 15 17 16 15 6 30 33 30 29 24 22 21 18 16 16 15 15 15 15 15 14 13 12 10 9 7 6 5 3 1 0 0 2 3 4 5 5 6 6
5 3 4 8 10 9 4 2 4 13 11 5 7 9 8 21 29 31 26 23 21 19 18 16 16 14 13 13 13 12 12 11 10 8 8 6 5 4 3 2 3 4 4 6 6 7 9 9 8
5 4 5 2 10 7 10 5 6 15 6 3 4 6 5 24 33 29 23 22 20 17 16 15 14 14 14 12 11 10 10 9 9 8 6 5 4 4 2 4 5 6 8 9 9 10 11 11 10
3 2 3 1 10 8 13 6 2 6 6 3 5 6 18 30 26 26 23 18 15 11 10 10 11 12 12 11 10 9 9 8 7 7 6 5 5 5 5 7 9 10 12 13 12 11 12 13 13
4 4 4 3 22 16 12 10 11 7 6 4 7 23 28 30 26 25 22 20 22 20 9 5 7 7 8 7 8 10 9 8 7 6 5 3 4 5 8 12 13 14 16 17 16 16 14 14 13
3 5 11 12 16 19 14 4 3 15 5 5 13 13 18 27 24 25 21 23 19 18 20 17 15 6 11 6 5 9 11 10 9 9 7 3 5 5 7 9 11 13 13 12 13 15 15 19 20
0 7 10 15 14 11 10 8 14 13 8 14 14 13 19 18 20 19 17 20 17 19 18 16 17 17 15 9 7 3 13 12 11 10 8 9 9 9 11 7 7 7 8 11 13 15 16 15 12
5 6 18 18 10 16 17 12 14 14 13 14 18 19 14 16 19 21 19 17 14 16 14 15 13 16 14 14 13 12 11 4 5 16 16 16 16 13 8 9 11 10 11 12 15 16 15 12 12
2 15 21 17 16 15 21 10 6 6 13 14 16 15 13 15 15 18 19 17 16 13 13 12 11 11 11 14 15 16 17 17 14 14 10 6 3 5 4 5 8 10 12 14 15 16 15 14 15
7 18 12 16 11 9 16 5 8 12 15 14 14 11 12 14 17 17 17 19 15 14 12 12 11 9 10 12 13 14 14 15 17 16 14 13 14 10 8 8 9 12 13 14 15 16 17 17 18
7 8 8 11 16 12 4 5 8 11 15 13 11 9 9 11 16 18 17 17 16 15 16 12 10 8 11 12 13 15 14 16 18 18 18 18 17 16 13 14 15 14 14 16 18 20 20 21 21
4 7 5 10 10 9 3 7 13 11 13 12 12 10 9 9 15 17 16 16 15 15 15 14 11 11 11 14 17 19 18 19 20 20 20 19 17 16 16 18 19 19 18 18 19 20 22 21 24
4 2 4 11 15 5 8 7 18 14 14 12 10 9 7 9 9 17 16 15 14 14 15 15 13 12 11 17 17 19 21 22 23 21 25 21 18 17 17 18 20 21 20 21 22 21 21 18 25
5 3 6 9 10 6 7 12 21 17 13 13 10 10 9 9 12 17 16 15 14 14 15 17 16 14 13 12 17 22 22 22 24 25 21 22 20 21 21 21 21 21 21 21 22 23 23 21 29
7 7 7 7 9 6 11 13 9 16 15 16 16 13 12 9 7 14 17 15 14 14 14 15 17 17 16 16 19 15 17 21 21 23 25 22 22 23 23 23 23 22 21 22 23 24 23 14 22
12 6 6 7 8 8 14 3 9 5 6 13 13 15 14 14 12 10 17 16 13 13 14 15 19 19 18 16 16 16 17 20 22 25 26 24 23 23 23 22 21 22 23 24 23 23 23 17 17
10 12 14 11 6 7 6 6 7 8 10 13 15 14 14 13 10 14 18 16 14 13 13 15 16 19 20 20 22 24 24 23 22 21 21 22 23 26 26 24 24 24 24 25 24 22 23 21 18
12 18 9 11 7 6 5 4 6 13 7 13 13 15 14 13 13 12 19 19 16 14 14 14 15 16 19 20 21 23 23 21 20 21 23 20 23 26 26 24 24 25 25 25 24 24 23 22 20
9 6 3 3 5 4 10 10 5 15 26 14 15 17 17 15 12 17 24 21 17 14 13 12 13 14 15 17 19 19 20 20 19 20 22 21 22 25 27 26 23 24 23 23 23 24 24 24 23
5 5 3 5 1 6 11 7 5 13 11 21 22 19 16 14 12 12 18 21 17 14 12 11 11 12 12 15 16 15 16 17 18 18 19 20 21 21 22 25 27 23 26 22 21 22 24 25 26
10 10 7 8 7 9 4 6 3 14 12 18 18 17 15 12 11 11 19 23 19 14 11 10 10 11 12 13 14 15 14 16 17 17 17 16 18 16 15 20 22 24 24 19 18 19 23 28 25
6 3 9 6 2 2 4 3 9 10 19 23 21 16 14 13 13 12 19 22 19 15 10 9 10 10 11 11 12 14 13 12 14 14 16 16 17 17 9 15 18 19 22 17 18 16 24 31 26
4 2 0 3 6 6 2 3 7 13 17 18 16 18 15 12 13 10 16 17 17 15 11 13 13 11 11 12 10 10 12 11 11 12 12 14 13 13 13 11 14 18 19 16 16 16 22 29 28
6 4 5 3 4 3 2 5 4 14 18 18 18 16 15 13 12 10 14 16 19 13 12 17 13 11 10 12 10 9 10 9 11 12 10 11 12 11 15 10 12 19 22 15 12 18 18 28 28
6 2 4 4 4 2 3 3 4 8 8 9 10 11 12 11 9 14 19 21 18 13 12 16 12 10 9 10 9 8 8 6 10 13 14 13 11 10 14 9 14 19 21 13 17 18 19 27 26
Wind_Direction
0 330 133 136 69 38 297 337 256 31 28 352 115 72 99 39 73 156 109 163 148 142 136 134 131 126 123 123 121 119 118 116 116 113 112 111 109 108 107 105 102 100 97 90 85 77 77 76 75
326 265 150 75 101 125 296 356 67 61 34 6 60 55 44 88 56 114 101 143 145 139 135 134 131 129 129 129 126 124 122 120 117 118 118 118 117 114 110 105 103 102 98 93 84 73 71 68 75
329 193 101 124 112 174 168 32 120 84 49 98 63 13 55 105 124 127 149 146 144 136 135 134 136 134 133 131 127 126 123 119 117 118 122 125 125 120 114 113 111 107 101 97 87 75 67 65 58
324 24 15 62 301 234 219 160 177 133 157 92 135 59 55 136 112 135 143 147 141 135 137 139 139 137 135 131 130 128 126 126 126 125 128 128 127 124 122 124 122 114 107 96 80 59 56 49 36
356 74 58 57 310 31 38 113 55 101 97 77 84 94 73 82 127 137 146 146 140 137 139 141 141 142 138 136 134 134 131 130 129 134 136 141 139 141 146 147 133 108 86 26 10 351 340 344 2
1 91 66 100 81 26 50 346 117 109 105 105 90 93 94 134 131 143 148 149 145 139 141 143 145 144 143 143 143 142 141 143 145 145 147 156 158 160 168 209 273 344 307 330 335 326 326 324 341
128 94 217 158 129 111 125 176 203 117 129 82 113 103 128 138 141 152 144 142 144 141 143 147 146 146 147 148 150 150 153 155 156 159 162 171 177 177 185 241 283 283 299 306 318 317 315 315 331
115 106 303 359 130 132 165 161 149 104 75 351 326 142 144 146 152 146 139 135 139 143 145 143 148 150 150 154 157 161 165 170 168 175 181 186 198 208 245 284 289 291 303 303 304 312 311 312 316
123 63 305 178 113 134 153 156 285 41 88 1 12 86 137 147 137 138 130 124 130 130 135 143 155 162 161 160 163 173 180 181 188 191 196 210 226 236 272 291 292 297 303 303 308 310 307 309 307
107 111 341 59 125 151 164 165 156 137 151 173 83 72 81 86 85 84 75 65 70 91 102 175 191 173 178 180 195 194 195 197 203 206 207 236 246 266 296 305 298 301 298 299 300 305 307 303 313
154 149 124 115 138 141 142 92 20 138 116 27 114 92 78 81 71 73 74 72 66 73 89 83 123 173 224 242 268 223 213 219 211 210 213 217 248 279 310 304 312 308 321 322 319 315 313 306 302
119 124 134 160 166 146 119 127 72 70 84 94 85 83 80 74 74 69 65 74 76 77 78 81 93 103 120 113 103 269 254 258 252 241 238 248 263 272 282 325 1 348 338 323 321 318 317 314 336
179 82 134 146 156 111 106 83 105 88 85 83 85 71 67 76 78 76 71 73 71 67 68 68 80 89 92 85 85 77 85 96 261 255 257 258 262 275 286 300 310 324 337 336 329 326 322 312 310
186 125 136 144 144 128 113 125 88 113 103 82 74 75 72 69 75 74 69 64 54 46 43 48 63 64 77 81 84 83 86 91 95 82 82 76 230 261 293 306 342 328 329 336 341 345 343 338 333
87 112 121 148 138 121 102 35 140 143 112 100 94 89 80 78 70 71 66 61 52 44 38 46 54 55 65 75 80 77 79 79 72 67 62 56 48 46 45 30 15 7 358 349 335 335 337 330 321
102 111 137 222 159 167 100 194 169 150 123 124 119 109 102 97 94 82 71 62 54 46 40 48 57 68 77 78 76 73 70 69 61 54 51 49 47 44 38 32 23 12 358 357 357 351 343 340 334
34 163 172 191 236 152 99 138 184 163 143 147 142 135 120 107 95 88 79 66 56 51 45 50 58 65 84 86 84 81 75 68 63 58 50 43 39 36 36 31 25 19 14 7 3 359 359 350 332
246 172 153 168 210 167 138 186 166 171 158 156 145 129 119 112 113 107 92 76 65 57 52 50 56 63 87 91 96 86 79 66 62 56 54 50 49 38 33 28 21 15 10 7 3 0 358 358 342
248 242 256 225 193 102 165 158 174 171 160 154 148 137 132 121 113 108 97 85 73 57 54 50 55 53 70 100 82 74 73 67 68 62 60 61 51 38 34 29 20 18 16 14 7 3 5 3 353
248 255 260 276 188 106 160 162 155 171 170 161 151 147 142 133 119 112 107 95 80 68 59 55 55 57 63 78 83 91 82 71 70 67 61 51 44 38 32 28 26 24 19 17 18 15 14 17 20
254 223 229 200 88 51 110 28 186 188 142 159 158 149 146 143 138 131 120 109 93 78 69 66 63 62 64 78 93 94 82 68 63 61 61 51 42 36 35 36 33 31 30 28 25 20 21 12 12
251 244 239 157 132 176 193 209 216 192 178 170 158 152 145 142 133 134 133 126 111 97 88 78 74 67 67 70 77 73 75 70 66 65 60 51 42 41 41 45 44 40 36 34 31 30 27 25 20
240 249 194 172 158 115 209 99 261 172 197 183 158 147 147 144 141 142 143 135 125 112 100 89 86 79 73 73 73 78 76 76 72 65 58 54 43 40 41 45 43 41 37 34 36 30 30 26 25
241 238 125 79 133 178 211 184 228 181 203 152 151 154 149 146 145 137 140 137 132 125 109 101 89 88 79 77 71 77 72 71 69 60 55 51 44 41 39 37 36 39 34 32 35 36 35 28 20
191 82 265 282 128 218 196 207 215 205 165 168 158 151 149 147 141 129 132 145 139 137 128 110 100 90 95 91 79 76 72 70 65 56 46 41 38 35 34 31 28 30 28 26 25 25 24 13 4
249 176 195 215 238 251 118 210 278 275 175 139 135 141 144 133 134 135 138 133 135 129 126 133 117 102 105 94 80 68 62 66 61 52 44 41 32 24 25 27 28 26 21 23 18 16 16 3 355
268 187 196 183 235 102 137 155 28 69 120 135 142 138 129 127 128 134 144 142 141 136 125 139 122 112 113 99 86 77 71 72 65 52 44 43 36 29 14 24 27 24 16 22 12 9 357 359 357
320 334 170 55 188 233 17 261 173 152 144 139 137 134 137 133 126 122 133 139 139 133 115 128 127 114 120 117 104 97 89 91 62 49 50 46 29 26 25 27 30 16 14 12 4 352 346 352 357
351 25 348 86 37 123 111 294 235 171 155 141 138 140 144 143 138 125 112 114 136 130 113 127 122 110 105 131 118 109 98 86 61 50 53 30 21 31 30 20 27 14 12 9 7 354 340 344 344
84 33 61 91 347 356 88 296 74 110 105 116 128 133 133 129 120 118 124 122 123 130 107 119 117 104 87 125 106 96 118 90 55 42 26 8 21 32 23 36 12 10 11 15 357 357 341 338 333